Location: Fairview
(40.8165°N, 122.7667°W)
Time: 22:23:10
(UTC+00:00)

USA 81 - Pass Details

Date: 16 September 2024
Orbit: 784 x 786 km, 85.0° (Epoch: 06 October)

Event Time Altitude Azimuth Distance (km) Brightness Sun altitude
Rises 02:45:18 0° 340° (NNW) 3,283 7.7 -5.8°
Reaches altitude 10° 02:48:13 10° 324° (NW) 2,350 7.2 -6.3°
Maximum altitude 02:51:58 20° 278° (W) 1,742 7.2 -7.0°
Drops below altitude 10° 02:55:43 10° 232° (SW) 2,337 7.2 -7.7°
Sets 02:58:37 0° 216° (SW) 3,260 7.6 -8.3°
